This is the latest recevied weather packets stored in our database for station/object N8AMF. If no packets are shown the sender has not sent any weather packets the latest 10 day(s).
| Time | Temp. | Humidity | Pressure | Rain* | Wind** | Luminosity | Snow |
|---|---|---|---|---|---|---|---|
| 1778177526 | 13.33° C | 54% | 1011.5 hPa | 0 mm | - | 1019 W/m² | - |
| 1778177222 | 12.78° C | 52% | 1011.5 hPa | 0 mm | - | 342 W/m² | - |
| 1778176920 | 13.89° C | 55% | 1011.5 hPa | 0 mm | - | 1001 W/m² | - |
| 1778176615 | 13.33° C | 52% | 1011.4 hPa | 0 mm | - | 1062 W/m² | - |
| 1778176307 | 13.33° C | 56% | 1011.4 hPa | 0 mm | - | 1012 W/m² | - |
| 1778176004 | 13.33° C | 52% | 1011.7 hPa | 0 mm | - | 996 W/m² | - |
| 1778175702 | 13.89° C | 52% | 1011.7 hPa | 0 mm | - | 991 W/m² | - |
| 1778175399 | 12.78° C | 51% | 1011.6 hPa | 0 mm | - | 975 W/m² | - |
| 1778175096 | 13.33° C | 50% | 1011.7 hPa | 0 mm | - | 983 W/m² | - |
| 1778174792 | 12.78° C | 53% | 1011.7 hPa | 0 mm | - | 830 W/m² | - |
| 1778174484 | 12.78° C | 55% | 1011.9 hPa | 0 mm | - | 1137 W/m² | - |
| 1778174179 | 12.78° C | 57% | 1011.6 hPa | 0 mm | - | 376 W/m² | - |
| 1778173876 | 13.33° C | 57% | 1011.7 hPa | 0 mm | - | 1031 W/m² | - |
| 1778173573 | 13.33° C | 58% | 1011.8 hPa | 0 mm | - | 1061 W/m² | - |
| 1778173270 | 13.33° C | 56% | 1011.9 hPa | 0 mm | - | 357 W/m² | - |
| 1778172966 | 13.33° C | 57% | 1011.7 hPa | 0 mm | - | 774 W/m² | - |
| 1778172662 | 13.33° C | 58% | 1011.7 hPa | 0 mm | - | 411 W/m² | - |
| 1778172358 | 12.78° C | 58% | 1011.6 hPa | 0 mm | - | 1001 W/m² | - |
| 1778172055 | 12.22° C | 53% | 1011.7 hPa | 0 mm | - | 238 W/m² | - |
| 1778171753 | 13.89° C | 53% | 1011.6 hPa | 0 mm | - | 355 W/m² | - |
| 1778171451 | 13.89° C | 50% | 1011.6 hPa | 0 mm | - | 1083 W/m² | - |
| 1778171150 | 12.78° C | 53% | 1011.5 hPa | 0 mm | - | 1030 W/m² | - |
| 1778170848 | 13.33° C | 52% | 1011.6 hPa | 0 mm | - | 806 W/m² | - |
| 1778170544 | 13.89° C | 46% | 1011.8 hPa | 0 mm | - | 956 W/m² | - |
| 1778170241 | 13.89° C | 47% | 1011.6 hPa | 0 mm | - | 955 W/m² | - |
* Rain latest hour (hover to see other rain measurements)
** Current wind speed in m/s (hover to see current wind gust speed)